Wind_Speed
18 19 18 18 18 18 18 18 18 17 17 16 15 14 13 12 11 10 9 9 8 7 7 6 5 5 5 5 5 6 6 6 6 5 4 4 4 4 4 4 5 5 6
21 20 20 19 19 19 19 19 18 18 18 18 17 16 16 14 13 12 11 11 10 9 9 8 7 7 6 6 6 6 7 7 7 7 6 6 5 5 5 5 6 6 7
23 22 22 21 21 20 20 19 19 19 19 18 18 18 17 16 15 14 13 13 12 12 11 10 9 8 8 8 8 7 8 8 8 8 8 8 7 7 7 7 7 8 8
26 25 24 24 23 22 22 21 20 20 19 19 19 19 19 18 17 16 16 15 14 14 13 12 11 11 10 9 9 9 9 9 9 9 9 9 9 9 9 9 9 9 10
29 28 27 26 25 24 23 23 22 22 21 21 20 20 20 19 19 18 17 17 16 15 15 14 14 13 12 11 11 11 10 10 10 10 11 11 11 11 11 11 11 11 11
32 31 30 29 27 26 25 24 24 23 23 22 22 21 21 20 20 20 20 19 18 17 17 16 16 15 14 13 13 13 13 12 12 12 12 13 13 13 13 13 13 13 13
35 34 33 32 31 29 28 27 26 25 24 24 23 23 23 22 22 21 21 21 20 20 19 18 18 17 16 16 15 15 15 15 15 14 14 15 15 15 15 15 15 15 15
38 37 36 35 34 33 31 30 28 27 26 25 25 24 24 23 23 23 22 22 22 22 21 20 19 19 19 18 18 17 17 17 17 17 17 17 17 17 17 17 17 17 18
40 40 39 38 37 36 35 33 32 30 29 28 27 26 25 25 24 24 24 24 23 23 23 22 22 21 21 20 20 20 19 19 19 19 19 19 19 19 19 19 19 19 19
41 41 41 41 40 39 38 36 34 33 32 31 30 29 28 26 26 25 25 26 25 25 24 24 24 24 23 23 22 22 22 22 21 21 21 21 22 22 21 21 21 21 21
41 42 42 42 42 41 41 39 38 36 35 34 33 31 30 29 28 28 27 27 27 27 26 26 25 25 25 25 24 24 24 24 24 23 23 23 23 23 23 23 23 23 24
41 42 42 43 43 43 42 41 41 39 39 37 36 35 33 32 32 31 30 29 29 28 28 28 28 28 27 26 26 26 26 26 26 25 25 25 25 25 25 25 25 25 25
43 43 43 44 44 44 44 43 43 42 41 40 39 38 36 36 35 33 33 32 31 30 30 30 30 30 29 29 28 28 28 28 28 27 27 28 28 27 27 27 27 27 27
45 45 45 45 46 45 45 45 44 44 43 43 42 40 39 39 38 36 35 35 34 33 32 32 32 32 31 31 31 31 30 30 30 29 29 29 29 29 30 30 29 29 29
46 47 46 46 47 47 47 47 46 45 45 44 43 42 42 41 40 39 38 37 37 36 35 34 33 33 33 33 32 32 31 31 32 31 31 31 31 31 31 31 31 31 31
47 48 48 48 48 48 48 48 47 47 46 46 45 44 43 42 41 41 40 39 39 38 37 37 36 36 35 35 34 34 33 33 33 33 33 33 33 32 32 32 32 32 32
48 49 49 50 49 49 49 49 49 48 48 47 46 46 45 44 44 43 42 41 41 40 40 39 38 38 37 37 37 36 35 35 35 35 35 35 35 35 34 33 33 34 34
48 49 50 51 51 51 51 51 51 51 50 49 48 48 47 46 46 45 44 43 43 43 42 41 40 39 38 39 39 39 38 37 37 37 37 36 37 36 35 35 35 35 35
48 49 50 51 51 51 52 52 52 52 52 51 51 50 50 49 48 48 47 45 44 44 44 43 42 41 41 40 40 40 40 40 39 39 38 37 37 37 37 37 36 36 36
49 49 50 50 51 52 52 52 52 52 53 53 52 52 52 52 51 50 49 47 45 45 44 44 43 43 43 43 42 42 42 41 41 40 39 38 37 37 38 38 38 38 38
48 49 50 50 51 52 52 52 52 52 52 52 53 53 53 53 52 52 52 50 48 47 46 45 45 45 45 44 44 44 42 42 41 40 40 39 39 39 39 39 40 40 39
45 46 48 49 50 50 51 51 51 51 52 52 53 53 53 54 54 53 53 52 51 50 49 48 47 47 47 45 44 44 43 43 42 42 41 41 40 40 40 41 41 41 40
40 42 44 46 47 48 49 50 51 50 50 51 52 53 54 54 54 55 54 53 53 53 52 51 49 48 47 46 46 46 45 44 43 42 42 42 41 41 41 40 39 39 40
35 37 39 42 44 47 48 49 50 50 49 49 49 51 53 55 54 54 53 53 53 52 51 51 50 50 49 48 46 46 46 45 45 44 43 44 43 42 41 41 40 41 41
32 34 36 38 40 42 44 46 47 47 48 48 47 48 49 50 50 50 51 51 51 51 51 52 51 51 50 49 48 48 47 46 46 45 44 43 43 42 42 42 43 43 44
28 30 32 34 36 38 39 41 42 43 43 43 43 43 44 46 47 47 47 47 48 49 50 51 52 52 50 49 49 48 47 47 45 45 43 43 43 43 44 44 45 45 46
Wind_Direction
249 251 251 251 251 251 251 251 250 250 251 252 254 255 256 258 260 262 262 260 259 257 257 255 255 251 246 240 234 232 232 233 236 242 251 265 282 296 312 323 330 334 337
249 250 251 251 251 251 251 251 251 251 252 252 253 254 255 256 257 260 261 259 259 259 258 258 259 259 256 251 246 243 243 241 243 246 251 259 270 282 293 303 309 315 320
250 250 251 251 251 250 250 250 251 251 252 253 254 254 254 254 255 258 260 259 259 261 261 260 260 261 260 256 253 251 251 251 250 251 254 258 265 274 282 289 295 302 307
250 250 251 251 251 250 250 250 250 251 253 253 254 254 254 254 255 256 258 260 260 261 263 262 261 261 261 259 258 257 256 257 256 257 259 262 266 271 276 281 287 292 297
251 251 251 251 251 251 251 251 251 251 253 254 254 255 256 256 256 256 257 258 260 261 262 263 262 261 261 261 261 261 260 259 260 262 263 265 267 270 274 277 281 286 290
250 250 251 251 251 251 251 252 252 253 253 254 254 256 257 257 257 257 257 258 260 261 262 262 263 263 263 263 263 262 262 262 263 264 266 267 268 271 273 275 279 282 286
250 250 250 251 251 251 251 252 253 254 254 254 255 255 256 258 258 258 258 258 259 260 262 262 263 264 264 263 263 263 264 264 265 266 267 269 270 272 273 275 277 280 283
249 250 250 251 251 252 252 252 253 254 255 255 255 256 256 257 258 259 259 259 259 260 261 262 263 264 265 263 263 264 265 266 267 267 268 270 271 272 274 275 277 280 282
249 249 250 250 251 252 252 252 252 253 254 255 256 256 256 256 257 259 258 259 259 260 261 262 263 263 265 265 264 265 266 267 268 268 269 270 272 273 274 276 277 278 281
249 249 250 250 251 251 252 253 252 253 253 254 255 255 256 256 256 257 258 258 259 260 261 262 263 264 264 265 266 266 266 267 268 270 271 272 273 274 274 276 277 278 279
249 249 250 250 251 251 252 252 252 253 254 254 255 255 255 256 256 257 258 258 259 260 261 262 263 265 265 264 265 266 267 267 268 270 271 272 273 274 275 276 277 279 279
249 249 249 250 251 251 251 252 252 253 253 254 255 255 256 256 256 257 258 258 259 259 261 262 262 264 265 265 265 266 267 268 269 269 271 272 272 273 275 276 277 279 280
250 250 250 250 251 251 252 252 252 253 253 253 253 254 256 256 256 256 257 258 258 259 261 262 263 263 264 265 266 267 268 269 269 269 271 272 273 274 275 276 277 279 280
250 250 250 251 251 251 252 253 253 253 253 254 253 254 255 256 257 257 256 256 257 258 260 262 264 263 264 266 266 268 269 270 269 270 271 272 273 274 276 277 277 279 279
251 251 251 251 252 251 252 252 253 253 253 254 254 254 255 255 256 256 256 256 257 258 259 260 263 265 265 266 267 268 269 270 270 271 271 272 273 276 277 278 278 278 280
251 251 251 251 252 252 252 252 252 252 252 253 253 254 254 255 255 256 255 256 257 258 258 259 262 264 265 266 267 268 269 270 271 271 271 272 273 275 277 278 278 279 281
253 251 250 250 250 251 251 251 251 252 251 252 252 253 253 255 255 256 256 257 257 258 259 259 261 263 264 265 266 267 268 269 270 270 271 272 273 274 275 276 278 280 281
255 252 250 249 249 250 250 250 250 250 250 251 252 252 252 253 255 256 257 257 257 258 259 259 259 261 263 264 265 266 267 269 270 271 271 272 273 273 274 276 277 279 280
256 253 251 249 249 249 250 250 250 250 250 250 251 252 252 252 253 254 256 256 257 258 258 258 259 260 262 264 265 265 266 267 269 270 271 272 273 274 274 275 276 277 278
256 253 251 249 249 248 249 249 250 250 251 250 251 251 251 251 252 253 253 254 256 258 258 258 259 261 263 264 265 265 265 266 268 269 270 271 272 274 274 274 275 276 278
255 253 251 249 248 248 249 249 249 249 250 251 250 250 250 250 251 252 252 254 254 256 257 258 259 260 263 265 265 265 266 267 268 269 269 271 273 274 274 274 274 275 277
256 254 251 249 248 248 248 248 249 249 250 250 250 250 250 250 251 251 252 253 254 255 256 257 258 259 261 263 264 265 266 266 267 268 269 271 272 273 273 275 274 274 276
257 254 252 250 248 248 248 247 249 250 251 251 251 250 250 250 251 251 252 253 254 254 255 256 258 259 260 262 263 265 265 265 267 268 269 270 271 273 274 274 274 274 275
256 254 252 250 249 248 248 248 249 251 252 252 252 251 251 251 251 251 252 252 253 254 254 256 258 258 258 260 262 264 266 266 267 267 268 269 270 271 272 272 273 275 275
257 255 253 251 249 248 248 249 249 250 251 251 251 252 251 250 249 250 250 252 252 253 254 256 256 257 257 258 260 263 265 267 268 269 269 268 269 270 271 272 273 274 276
259 255 253 253 251 249 248 248 247 249 249 249 250 252 251 249 247 247 249 251 252 253 253 254 255 256 257 258 260 262 264 265 266 267 268 268 268 269 270 272 274 275 276
Height
5855 5856 5857 5858 5859 5861 5862 5863 5864 5865 5867 5868 5869 5870 5870 5871 5872 5873 5873 5874 5874 5874 5874 5874 5874 5874 5874 5874 5874 5874 5875 5875 5876 5876 5876 5876 5877 5877 5877 5877 5876 5876 5876
5852 5853 5855 5856 5857 5858 5859 5860 5862 5863 5864 5865 5866 5867 5868 5869 5870 5871 5872 5872 5873 5873 5873 5873 5873 5873 5873 5874 5874 5874 5874 5874 5875 5875 5875 5875 5876 5876 5876 5876 5876 5875 5875
5848 5850 5851 5853 5854 5855 5856 5858 5859 5860 5861 5862 5864 5865 5866 5867 5868 5869 5870 5871 5871 5872 5872 5872 5872 5872 5873 5873 5873 5873 5873 5873 5874 5874 5874 5874 5874 5875 5875 5875 5874 5874 5874
5844 5846 5848 5849 5851 5852 5853 5854 5856 5857 5858 5860 5861 5862 5863 5865 5866 5867 5868 5869 5869 5870 5870 5871 5871 5871 5871 5872 5872 5872 5872 5872 5872 5873 5873 5873 5873 5873 5873 5873 5873 5873 5873
5840 5842 5844 5845 5847 5849 5850 5851 5853 5854 5855 5857 5858 5859 5861 5862 5863 5864 5865 5866 5867 5868 5868 5869 5869 5869 5870 5870 5870 5870 5871 5871 5871 5871 5871 5871 5871 5871 5871 5871 5871 5871 5871
5835 5837 5839 5841 5843 5845 5846 5848 5849 5851 5852 5853 5855 5856 5858 5859 5860 5861 5862 5864 5865 5865 5866 5866 5867 5867 5868 5868 5868 5869 5869 5869 5869 5869 5870 5869 5869 5869 5869 5869 5869 5869 5869
5829 5832 5834 5836 5838 5840 5842 5844 5845 5847 5848 5850 5851 5853 5854 5855 5857 5858 5859 5860 5861 5862 5863 5864 5864 5865 5865 5866 5866 5866 5867 5867 5867 5867 5867 5867 5867 5867 5867 5867 5867 5866 5866
5823 5826 5828 5831 5833 5835 5838 5840 5841 5843 5844 5846 5847 5849 5850 5852 5853 5855 5855 5857 5858 5859 5860 5861 5861 5862 5862 5863 5863 5864 5864 5864 5865 5865 5865 5865 5865 5865 5864 5864 5864 5864 5863
5817 5819 5822 5825 5827 5830 5832 5834 5836 5838 5840 5842 5843 5845 5846 5848 5849 5850 5852 5853 5854 5855 5856 5857 5858 5858 5859 5859 5860 5860 5861 5861 5862 5862 5862 5862 5862 5862 5861 5861 5861 5860 5860
5810 5812 5815 5818 5821 5823 5826 5828 5831 5833 5835 5837 5838 5840 5842 5843 5845 5846 5847 5849 5850 5851 5852 5853 5854 5855 5855 5856 5856 5857 5857 5858 5858 5858 5859 5858 5858 5858 5858 5857 5857 5857 5856
5802 5805 5808 5811 5814 5816 5819 5822 5825 5827 5829 5831 5833 5835 5836 5838 5840 5841 5843 5844 5845 5846 5848 5849 5849 5850 5851 5852 5852 5853 5853 5854 5854 5854 5854 5854 5854 5854 5854 5854 5853 5853 5852
5795 5798 5800 5803 5806 5809 5812 5815 5817 5820 5822 5825 5827 5829 5831 5833 5834 5836 5837 5839 5840 5841 5843 5844 5845 5845 5846 5847 5847 5848 5849 5849 5850 5850 5850 5850 5850 5850 5850 5849 5849 5848 5848
5787 5790 5793 5795 5798 5801 5804 5807 5810 5813 5815 5818 5820 5822 5824 5826 5828 5830 5832 5833 5835 5836 5837 5838 5839 5840 5841 5842 5843 5843 5844 5844 5845 5845 5845 5845 5845 5845 5845 5844 5844 5843 5843
5778 5781 5784 5787 5790 5793 5796 5799 5802 5805 5807 5810 5813 5815 5817 5819 5821 5823 5825 5827 5828 5830 5831 5833 5834 5834 5836 5836 5837 5838 5838 5839 5840 5840 5840 5840 5840 5840 5839 5839 5839 5838 5837
5769 5772 5775 5778 5781 5784 5787 5790 5793 5796 5799 5802 5805 5807 5810 5812 5814 5816 5818 5820 5822 5823 5825 5826 5827 5828 5829 5830 5831 5832 5832 5833 5834 5834 5834 5834 5834 5834 5834 5833 5833 5832 5832
5758 5761 5764 5768 5771 5774 5778 5781 5784 5787 5790 5793 5796 5799 5801 5804 5806 5808 5810 5812 5814 5816 5818 5819 5821 5822 5823 5824 5825 5826 5826 5827 5827 5828 5828 5828 5828 5828 5827 5827 5826 5826 5825
5747 5750 5753 5757 5761 5764 5767 5771 5774 5777 5781 5784 5787 5790 5793 5795 5798 5800 5802 5804 5806 5808 5810 5812 5813 5814 5816 5817 5818 5818 5819 5820 5820 5821 5821 5821 5821 5821 5821 5820 5820 5819 5818
5735 5739 5742 5745 5749 5753 5757 5760 5763 5767 5770 5774 5777 5780 5783 5786 5788 5791 5793 5796 5798 5800 5802 5804 5805 5807 5808 5809 5810 5811 5812 5812 5813 5813 5814 5814 5814 5814 5813 5813 5812 5811 5811
5724 5727 5730 5733 5738 5741 5745 5749 5752 5756 5759 5763 5766 5770 5773 5776 5779 5781 5784 5787 5789 5791 5793 5795 5797 5798 5800 5801 5801 5802 5803 5804 5805 5805 5806 5806 5806 5806 5805 5805 5805 5804 5803
5712 5715 5718 5722 5726 5729 5733 5737 5741 5744 5748 5752 5755 5759 5762 5765 5768 5771 5774 5777 5780 5782 5784 5786 5788 5789 5791 5792 5793 5793 5794 5795 5796 5797 5797 5798 5798 5798 5797 5797 5796 5796 5795
5700 5703 5706 5709 5713 5717 5721 5726 5730 5734 5737 5740 5744 5747 5750 5754 5757 5761 5764 5767 5770 5773 5775 5777 5778 5780 5782 5783 5784 5785 5786 5786 5787 5788 5789 5789 5789 5789 5789 5788 5788 5787 5787
5688 5690 5693 5697 5701 5705 5709 5714 5718 5721 5725 5728 5732 5735 5738 5742 5746 5749 5753 5756 5760 5762 5764 5767 5768 5770 5772 5773 5774 5775 5776 5778 5779 5779 5779 5780 5780 5780 5780 5779 5779 5778 5777
5678 5679 5682 5685 5689 5693 5697 5702 5706 5709 5713 5716 5720 5723 5726 5729 5734 5738 5741 5745 5748 5751 5753 5756 5758 5760 5762 5763 5764 5765 5767 5768 5769 5770 5770 5770 5770 5770 5770 5770 5769 5769 5768
5669 5670 5672 5674 5678 5681 5686 5690 5694 5698 5702 5705 5708 5711 5714 5718 5721 5725 5730 5733 5736 5739 5742 5744 5747 5749 5751 5752 5753 5755 5756 5757 5758 5760 5761 5761 5761 5761 5761 5760 5760 5759 5758
5661 5662 5664 5665 5668 5671 5674 5678 5683 5686 5690 5693 5696 5699 5702 5706 5710 5714 5717 5721 5724 5727 5730 5733 5735 5737 5739 5741 5743 5744 5745 5746 5747 5748 5751 5752 5751 5751 5751 5750 5749 5749 5748
5654 5655 5656 5658 5660 5662 5664 5668 5672 5676 5679 5682 5686 5689 5692 5695 5699 5702 5706 5709 5712 5716 5718 5721 5723 5726 5728 5730 5732 5733 5735 5736 5737 5737 5739 5740 5741 5741 5740 5739 5738 5738 5736